Temp_Advection
nan nan nan nan nan nan nan nan nan nan nan nan nan nan nan nan nan nan nan nan nan nan nan nan nan nan nan nan nan nan nan nan nan nan nan nan nan nan nan nan nan nan nan
nan 0 0 0 0 0 0 0 -0 -0 -0 0 0 -0 -0 -0 0 -0 -0 -0 -0 -0 -0 0 0 -0 -0 -0 -0 -0 -0 -0 -0 -0 -0 -0 -0 -0 -0 -0 -0 0 nan
nan -0 0 0 0 0 0 -0 -0 -0 -0 -0 -0 -0 -0 -0 -0 -0 -0 -0 -0 -0 0 -0 -0 -0 -0 -0 -0 -0 -0 0 0 -0 -0 -0 -0 -0 0 -0 -0 0 nan
nan -0 0 0 0 -0 0 -0 -0 0 -0 -0 -0 -0 0 -0 -0 -0 -0 -0 -0 -0 -0 -0 -0 -0 -0 -0 -0 -0 -0 -0 0 0 -0 -0 -0 -0 -0 0 0 -0 nan
nan 0 0 -0 0 -0 -0 -0 -0 -0 0 -0 -0 -0 -0 0 -0 -0 -0 -0 -0 -0 -0 -0 -0 -0 -0 -0 -0 -0 -0 -0 -0 0 -0 -0 -0 -0 -0 -0 -0 0 nan
nan -0 -0 0 -0 -0 -0 -0 -0 -0 -0 -0 -0 -0 0 -0 -0 -0 -0 -0 -0 -0 -0 -0 -0 -0 -0 -0 -0 -0 -0 -0 -0 -0 0 0 -0 -0 0 -0 -0 -0 nan
nan -0 -0 0 0 -0 -0 -0 -0 -0 -0 -0 0 0 -0 -0 -0 -0 -0 -0 -0 -0 -0 -0 -0 -0 -0 -0 -0 -0 -0 -0 -0 -0 -0 -0 -0 -0 -0 0 -0 -0 nan
nan -0 0 0 0 -0 -0 -0 -0 -0 -0 -0 -0 -0 -0 -0 -0 -0 -0 -0 -0 -0 -0 -0 -0 -0 -0 -0 -0 -0 -0 -0 -0 -0 -0 -0 -0 -0 -0 -0 -0 -0 nan
nan -0 -0 0 0 -0 -0 -0 -0 0 -0 -0 -0 -0 -0 -0 -0 -0 -0 -0 -0 -0 -0 -0 -0 -0 -0 0 0 0 0 -0 -0 -0 -0 -0 0 0 -0 -0 -0 -0 nan
nan 0 -0 0 0 0 0 0 0 0 -0 -0 -0 -0 -0 -0 -0 -0 -0 -0 -0 -0 -0 -0 -0 -0 -0 -0 -0 0 0 0 0 -0 -0 -0 -0 0 0 -0 -0 -0 nan
nan 0 -0 -0 0 0 0 0 0 0 0 -0 -0 -0 0 0 -0 -0 -0 -0 -0 -0 -0 -0 -0 -0 -0 -0 -0 -0 -0 -0 -0 -0 -0 0 0 -0 -0 0 -0 -0 nan
nan -0 0 -0 -0 -0 -0 -0 0 0 -0 -0 0 0 -0 -0 -0 -0 -0 -0 -0 -0 -0 -0 -0 -0 -0 -0 -0 -0 -1 -0 -0 -0 -0 -0 -0 0 -0 -0 -0 -0 nan
nan -0 -0 0 -0 -0 -0 -0 -0 -0 0 -0 -0 -0 -0 -0 -0 -0 -0 -0 -0 -0 -0 0 0 0 0 0 0 0 -0 -0 -0 -0 -0 -0 -0 -0 -0 -0 0 0 nan
nan 0 0 0 -0 -0 -0 -0 -0 -0 0 0 -0 -0 -0 -0 0 0 0 0 0 0 0 0 0 0 0 0 0 0 0 0 -0 -0 -0 -0 -0 -0 -0 -0 -0 -0 nan
nan -0 -0 0 -0 0 0 0 0 0 0 0 0 -0 -0 -0 0 0 0 0 0 0 0 0 -0 -0 -0 -0 -0 -0 -0 -0 0 -0 -0 -0 -0 -0 -0 -0 -0 -0 nan
nan -0 -0 -0 0 0 0 0 0 0 0 0 0 0 0 0 -0 -0 0 0 -0 -0 -0 -0 -0 -0 -0 -0 -0 -0 -0 0 0 -0 -0 -0 -0 -0 -0 -0 -0 -0 nan
nan 0 1 0 0 0 0 0 0 0 0 0 0 0 0 0 0 0 0 0 -0 -0 -0 -0 -0 -0 -0 -0 -0 -0 -0 -0 -0 -0 -0 -0 -0 -0 -0 -0 -0 -0 nan
nan 1 1 1 0 0 0 0 0 0 0 0 0 0 0 0 0 0 0 0 -0 -0 -0 -0 -1 -1 -0 -0 -1 -1 -0 -0 -0 -0 -0 -0 -0 -1 -1 -0 -0 -0 nan
nan 1 1 0 0 0 0 0 0 0 0 0 0 0 0 0 0 0 0 0 -0 -0 -0 -0 -0 -1 -1 -1 -1 -1 -1 -0 -0 -0 -1 -1 -0 -0 -1 -1 -1 -1 nan
nan 1 0 -0 0 0 0 0 0 0 0 0 0 0 0 0 0 0 0 -0 -0 -1 -1 -1 -1 -1 -0 -1 -1 -1 -1 -1 -0 -0 -0 -0 -1 -0 -0 -1 -1 -1 nan
nan 1 0 1 1 0 0 0 0 0 0 0 0 0 0 0 -0 -0 -0 -0 -0 -0 -0 -1 -1 -1 -1 -1 -1 -2 -2 -1 -1 -1 -0 -0 -1 -1 -0 -0 -1 -1 nan
nan 0 0 0 -0 -0 -0 0 -0 -0 -0 0 -0 -0 -0 0 -0 -0 -0 -1 -1 -1 -1 -0 -0 -1 -1 -1 -1 -2 -1 -2 -1 -1 -1 -1 -1 -1 -1 -1 -1 -1 nan
nan 0 0 0 0 -0 0 0 0 0 0 0 -0 -0 -0 -0 -0 -0 -0 -0 -0 -0 -1 -1 -1 -0 -1 -1 -0 -0 -1 -0 -2 -2 -2 -1 -1 -1 -1 -1 -1 -1 nan
nan -0 -0 -0 -0 -0 -0 -0 -0 -0 0 0 -0 -0 -0 -0 -0 -0 -0 -0 -0 -1 -1 -0 -0 -0 -0 -0 -0 -0 -0 -0 -0 -1 -1 -2 -2 -1 -0 -1 -1 -1 nan
nan -0 -0 -0 -0 -0 -0 -0 -0 -0 -0 -0 0 0 -0 -0 -0 -0 -0 -0 -0 -0 -1 -0 -0 -0 -0 -0 -0 -0 -0 -0 -0 0 -0 -0 -2 -2 -0 -0 -1 -1 nan
nan nan nan nan nan nan nan nan nan nan nan nan nan nan nan nan nan nan nan nan nan nan nan nan nan nan nan nan nan nan nan nan nan nan nan nan nan nan nan nan nan nan nan
Wind_Speed
21 20 16 13 12 10 10 10 10 10 10 10 10 9 9 8 7 7 6 6 6 6 7 7 7 6 5 5 6 7 7 7 7 6 5 7 5 4 3 3 2 1 1
23 21 17 14 13 12 11 10 10 10 10 10 9 9 9 9 9 8 8 9 9 9 9 9 9 8 6 6 6 6 6 6 5 3 5 8 7 3 5 5 3 2 3
23 21 18 15 13 11 10 10 10 10 9 9 9 9 9 8 8 8 8 9 9 10 11 11 11 12 11 10 8 7 5 4 4 3 4 6 5 2 1 5 6 6 5
24 21 17 15 13 11 10 10 10 9 9 9 9 9 8 8 8 8 9 9 10 11 11 11 11 12 12 12 11 9 7 5 2 2 3 4 3 3 4 3 8 11 8
23 20 17 15 12 11 10 10 9 9 8 8 8 8 8 8 8 8 9 9 10 10 11 11 11 11 10 10 9 8 7 5 3 2 3 3 3 5 8 9 11 7 10
22 19 17 14 13 11 9 8 7 7 7 8 8 8 8 8 8 9 9 9 9 9 10 10 10 9 9 9 8 7 7 6 3 1 2 3 3 3 6 8 6 7 8
22 19 18 14 11 9 7 6 6 8 9 9 9 9 8 9 9 10 10 10 10 10 10 10 12 12 10 9 8 9 9 7 3 2 1 2 3 4 5 7 10 9 7
22 20 17 13 9 8 7 7 9 10 10 9 9 9 10 10 10 11 11 11 12 12 13 13 14 14 14 12 11 12 12 8 4 3 2 2 3 5 6 7 9 11 13
20 17 14 12 10 9 9 10 10 10 10 9 10 10 11 11 11 11 11 12 13 12 13 15 17 17 16 14 14 14 12 10 9 7 5 4 4 6 6 8 11 14 16
17 13 11 12 12 12 11 11 11 10 9 9 10 10 9 8 9 10 11 11 12 13 13 14 16 18 19 20 19 17 15 13 11 11 11 11 10 9 10 11 11 14 16
16 13 12 13 14 14 13 13 12 11 10 9 8 6 7 6 7 7 9 9 10 11 11 12 14 16 18 19 19 19 18 16 15 14 15 15 16 15 13 13 13 14 16
17 15 11 13 12 13 12 12 10 9 9 7 6 5 3 3 5 6 7 6 7 8 8 9 10 12 14 18 19 18 19 18 17 15 16 16 16 17 16 15 16 17 17
17 16 13 14 12 11 9 8 7 5 7 4 3 3 2 3 4 5 4 4 5 6 7 9 11 13 15 18 20 17 17 18 18 18 16 16 17 17 19 21 22 20 20
20 16 15 15 14 11 7 5 3 3 3 1 0 3 4 5 6 5 5 5 7 9 10 13 15 17 19 21 23 22 20 19 17 17 17 18 20 20 20 20 20 21 20
23 19 16 17 15 11 7 6 5 5 5 4 3 4 6 6 7 7 8 9 11 13 16 18 19 22 25 26 25 25 25 23 20 20 20 19 20 20 22 23 24 22 21
26 22 20 19 14 11 7 5 4 7 7 5 6 5 7 8 9 12 13 12 12 15 18 19 22 26 26 29 30 29 28 25 23 23 22 23 23 24 24 25 26 26 24
28 25 23 19 15 8 9 6 3 5 6 4 5 8 10 12 11 11 12 13 15 17 20 22 26 29 31 32 30 30 29 27 26 27 28 29 30 30 28 24 27 28 28
29 29 26 23 14 7 12 9 6 7 8 7 10 13 15 14 13 14 15 15 17 20 24 28 32 36 35 36 35 33 32 30 28 26 25 24 24 26 28 29 29 26 28
32 33 30 27 10 8 9 8 8 9 9 9 11 12 12 13 14 16 17 18 21 24 29 33 32 35 36 36 38 37 34 33 31 28 25 23 24 26 26 25 27 29 29
30 36 25 15 13 7 11 9 9 8 7 6 7 8 9 11 14 16 18 22 26 29 32 33 35 36 36 39 38 34 31 28 24 20 18 20 21 21 22 23 24 24 25
23 23 19 13 9 7 7 7 8 7 3 3 5 7 10 13 16 21 24 27 31 33 32 34 35 34 32 30 33 35 35 13 20 24 20 21 26 25 26 26 25 25 26
16 8 7 6 5 3 3 1 1 2 5 7 11 14 18 21 25 27 28 32 33 31 30 28 27 27 26 24 26 30 19 34 17 27 32 22 30 30 31 32 32 31 27
14 14 12 11 7 4 1 3 5 9 12 14 17 20 20 22 24 26 30 29 25 24 27 26 23 23 24 24 24 19 17 13 38 28 36 28 33 31 29 29 29 30 31
13 11 8 7 7 7 9 10 10 12 15 16 17 18 20 23 27 31 31 26 26 29 32 25 21 20 20 19 18 19 21 24 21 25 19 29 28 28 28 24 22 21 21
8 5 4 3 1 3 6 11 12 12 13 14 14 16 22 29 30 31 27 27 28 31 28 25 24 21 19 20 21 24 24 24 22 21 26 16 25 28 25 19 15 14 13
9 3 2 2 4 8 12 14 14 14 14 14 16 21 26 26 28 28 27 27 27 28 26 23 23 20 19 20 20 19 19 18 23 24 27 34 30 33 28 18 11 9 9
Wind_Direction
159 152 157 162 158 147 131 121 121 120 115 115 112 103 94 91 84 73 61 53 42 34 26 17 13 6 351 334 331 329 327 317 325 316 291 279 262 272 297 267 305 303 122
158 150 152 156 149 139 131 134 131 122 119 108 95 89 78 72 64 55 48 42 38 32 26 21 16 10 1 352 351 339 334 337 336 303 261 266 270 274 295 330 313 267 298
154 149 153 153 147 143 143 134 131 124 112 104 94 83 80 73 64 55 49 43 38 36 33 33 29 28 26 23 24 14 357 332 327 338 263 255 284 288 165 296 283 259 240
152 152 153 153 152 147 140 136 126 114 105 98 94 91 80 68 58 48 43 45 45 45 42 39 35 34 32 33 29 22 15 8 337 293 267 263 268 308 325 173 317 290 284
152 151 152 153 149 144 132 119 119 116 110 103 96 87 79 70 55 52 52 49 47 43 38 34 33 29 25 30 28 24 20 5 353 253 252 260 259 301 304 290 306 306 281
151 150 146 147 141 132 127 121 118 110 108 104 98 87 78 64 60 59 54 47 42 39 32 23 19 16 9 16 16 12 13 11 348 318 222 248 254 297 297 307 311 308 294
148 145 142 136 128 119 124 129 119 109 106 103 97 86 75 70 66 62 54 45 34 29 26 18 15 8 5 7 18 14 1 356 339 321 324 258 266 293 285 297 317 323 284
143 137 131 128 120 125 129 122 117 113 111 104 92 85 77 78 69 63 57 51 41 38 38 23 23 22 24 27 22 9 3 349 330 320 331 333 299 298 317 311 311 316 305
133 130 128 123 121 120 116 121 123 120 112 108 101 99 82 79 78 67 60 46 49 44 44 45 37 34 30 19 7 6 357 343 332 323 316 312 304 293 287 299 309 307 308
132 130 129 118 116 117 123 125 124 118 114 109 103 92 77 75 66 59 53 44 41 41 44 42 37 32 27 24 18 10 3 358 326 314 309 306 298 290 285 287 293 306 309
144 139 128 128 120 125 128 128 125 117 115 107 94 78 76 67 57 49 51 41 44 44 41 29 22 17 14 10 6 8 4 356 347 341 326 306 301 299 287 291 296 302 309
159 150 144 150 140 140 131 124 119 111 113 109 82 64 65 41 33 37 50 45 31 26 16 1 359 356 350 350 351 349 351 349 345 341 334 332 322 303 300 295 292 298 301
164 160 161 158 152 154 146 139 143 145 125 99 55 25 358 5 14 10 13 10 360 348 344 341 343 337 333 331 335 333 330 329 329 328 328 326 327 324 310 301 295 293 296
180 177 168 168 167 158 149 166 175 202 200 171 38 345 337 330 331 313 303 315 314 318 320 322 325 325 321 321 322 320 316 311 309 305 306 310 313 314 315 315 312 304 298
191 187 182 183 178 175 165 199 210 237 236 269 295 320 323 313 306 301 293 298 314 318 321 321 324 325 318 315 316 316 313 310 303 297 295 293 291 289 294 302 306 307 306
198 199 191 190 178 179 192 214 226 233 242 268 293 297 300 294 298 305 299 299 302 307 312 312 313 318 316 314 312 310 307 305 301 296 292 290 287 285 281 279 284 293 297
206 208 201 192 184 202 196 207 234 234 233 258 270 275 274 272 274 279 283 284 288 295 302 305 309 314 315 313 312 310 309 306 301 297 294 291 288 283 280 280 274 272 278
217 211 196 191 180 204 188 197 203 215 215 213 223 241 250 254 261 269 277 284 294 303 307 310 312 313 311 311 310 309 308 308 307 305 300 295 295 287 282 276 271 267 265
218 216 198 192 211 239 218 202 211 207 213 226 235 239 245 252 263 276 287 298 304 306 309 313 313 314 313 310 310 309 304 302 305 304 302 297 289 287 291 289 275 266 257
212 210 218 218 247 224 233 205 203 217 244 232 231 232 247 264 276 284 298 306 310 314 312 310 311 311 312 310 311 310 308 307 302 299 298 296 291 291 292 294 290 282 269
190 197 218 242 214 182 192 212 237 249 254 262 274 285 287 296 307 312 314 316 316 315 316 316 313 311 311 310 315 312 318 312 299 300 289 300 300 295 294 298 296 292 286
156 157 125 130 139 142 186 182 51 349 313 316 321 319 316 314 315 315 316 317 315 311 311 313 315 318 319 324 323 323 326 315 305 302 313 310 310 308 301 295 290 288 289
127 126 124 130 139 159 244 314 310 311 314 314 320 319 310 310 311 313 318 323 323 322 327 327 320 317 318 317 315 327 327 308 314 316 311 315 314 312 309 305 302 296 289
123 114 95 68 35 14 6 352 344 326 310 306 313 314 312 313 316 320 324 326 326 330 333 331 323 316 318 318 318 315 312 309 312 314 308 309 308 311 309 312 308 302 297
110 99 84 77 12 320 308 311 314 313 313 311 304 308 319 323 322 323 327 330 337 340 338 333 329 329 330 324 319 317 312 309 308 298 305 310 309 313 307 322 330 323 317
143 84 35 270 289 308 318 315 313 313 312 311 318 331 331 328 328 327 329 332 335 337 331 330 326 326 324 320 318 318 319 316 312 305 299 304 303 312 313 317 320 344 350
Height
1542 1545 1548 1551 1552 1553 1553 1554 1555 1556 1556 1557 1558 1558 1559 1559 1559 1559 1559 1559 1559 1558 1557 1557 1556 1555 1556 1556 1554 1552 1550 1551 1548 1551 1550 1548 1548 1548 1548 1548 1546 1546 1548
1541 1544 1548 1551 1553 1553 1554 1555 1556 1556 1557 1557 1558 1558 1558 1559 1559 1558 1558 1558 1557 1557 1557 1556 1555 1555 1555 1554 1552 1553 1551 1550 1550 1549 1547 1547 1547 1549 1549 1549 1548 1549 1548
1542 1546 1549 1552 1553 1554 1555 1556 1556 1557 1557 1557 1558 1558 1559 1559 1559 1558 1558 1558 1557 1558 1558 1556 1557 1556 1555 1554 1552 1552 1551 1550 1550 1549 1548 1549 1549 1549 1549 1549 1549 1549 1546
1543 1547 1550 1552 1554 1555 1556 1557 1558 1558 1558 1558 1559 1560 1560 1560 1561 1560 1560 1560 1560 1559 1560 1559 1558 1557 1557 1555 1553 1552 1552 1550 1550 1549 1548 1549 1549 1549 1549 1549 1549 1547 1547
1545 1547 1550 1553 1554 1556 1557 1558 1558 1559 1558 1559 1559 1560 1560 1561 1561 1561 1561 1562 1561 1560 1560 1560 1559 1558 1558 1555 1554 1552 1552 1551 1550 1550 1549 1549 1549 1548 1548 1548 1548 1548 1548
1546 1549 1551 1553 1555 1556 1557 1558 1560 1559 1560 1560 1560 1561 1562 1562 1562 1563 1562 1562 1561 1560 1559 1560 1559 1557 1558 1556 1554 1553 1552 1551 1550 1549 1549 1549 1549 1548 1548 1547 1547 1548 1547
1547 1549 1553 1555 1556 1557 1558 1560 1560 1560 1562 1561 1561 1562 1563 1564 1564 1564 1563 1563 1563 1562 1560 1560 1558 1559 1557 1556 1555 1554 1552 1551 1550 1550 1549 1550 1549 1548 1547 1547 1546 1545 1545
1550 1552 1554 1556 1557 1558 1559 1560 1560 1561 1562 1562 1563 1564 1564 1564 1565 1564 1565 1563 1562 1562 1561 1562 1559 1558 1557 1557 1555 1554 1553 1552 1551 1551 1550 1550 1549 1548 1547 1546 1545 1544 1545
1553 1554 1556 1557 1557 1559 1559 1560 1560 1561 1562 1563 1563 1564 1563 1564 1565 1565 1565 1567 1563 1563 1561 1563 1562 1560 1558 1558 1556 1555 1553 1553 1552 1551 1550 1550 1549 1549 1547 1547 1546 1545 1544
1554 1556 1558 1557 1558 1558 1560 1561 1561 1562 1563 1563 1564 1565 1566 1568 1566 1564 1565 1565 1565 1564 1562 1562 1562 1561 1560 1558 1557 1555 1553 1553 1552 1550 1550 1549 1548 1548 1547 1546 1545 1544 1543
1554 1556 1558 1558 1558 1559 1561 1561 1561 1562 1562 1563 1564 1566 1566 1567 1566 1567 1564 1566 1564 1564 1563 1563 1561 1560 1560 1558 1557 1555 1554 1552 1551 1550 1548 1547 1546 1546 1545 1544 1543 1542 1541
1553 1556 1557 1557 1558 1561 1562 1562 1562 1562 1563 1565 1565 1566 1566 1567 1567 1567 1564 1564 1565 1564 1562 1563 1560 1559 1559 1558 1556 1554 1553 1552 1550 1549 1547 1545 1544 1543 1542 1542 1541 1539 1539
1553 1554 1556 1559 1561 1562 1562 1561 1562 1563 1563 1565 1566 1566 1567 1566 1565 1565 1565 1564 1564 1563 1562 1561 1559 1557 1557 1555 1554 1552 1551 1550 1549 1548 1546 1545 1543 1541 1539 1538 1537 1536 1535
1552 1554 1556 1558 1560 1560 1559 1561 1561 1562 1563 1564 1564 1565 1566 1567 1567 1565 1565 1564 1563 1562 1561 1560 1557 1556 1555 1553 1551 1550 1548 1547 1545 1544 1544 1542 1541 1539 1537 1535 1533 1531 1530
1552 1553 1555 1558 1560 1560 1560 1561 1561 1563 1562 1564 1565 1566 1567 1566 1566 1566 1565 1563 1562 1560 1559 1557 1555 1554 1552 1550 1548 1546 1545 1543 1542 1540 1538 1537 1536 1535 1534 1532 1530 1529 1526
1549 1551 1552 1557 1556 1558 1560 1561 1561 1563 1563 1562 1565 1566 1567 1566 1565 1563 1563 1562 1560 1558 1555 1553 1551 1549 1547 1545 1543 1542 1540 1538 1537 1535 1534 1532 1531 1529 1528 1526 1526 1525 1523
1545 1550 1553 1555 1556 1558 1558 1560 1562 1562 1563 1563 1564 1566 1566 1564 1563 1561 1560 1558 1556 1554 1551 1550 1548 1545 1543 1540 1538 1536 1534 1533 1531 1529 1528 1527 1525 1523 1521 1520 1519 1518 1518
1548 1552 1555 1558 1561 1560 1558 1559 1560 1562 1562 1561 1563 1563 1562 1561 1560 1558 1557 1555 1553 1551 1548 1545 1542 1538 1537 1534 1531 1530 1528 1526 1524 1522 1521 1519 1516 1515 1513 1512 1512 1511 1511
1548 1551 1554 1557 1557 1559 1559 1558 1559 1560 1560 1560 1560 1561 1560 1559 1558 1556 1554 1553 1550 1547 1545 1540 1539 1534 1531 1528 1525 1523 1522 1520 1518 1515 1514 1512 1510 1508 1507 1505 1504 1503 1503
1546 1549 1552 1554 1556 1558 1558 1558 1559 1559 1559 1559 1560 1560 1559 1558 1557 1555 1553 1551 1548 1544 1541 1538 1534 1531 1527 1522 1519 1516 1515 1515 1512 1510 1508 1506 1504 1502 1500 1499 1497 1496 1495
1546 1551 1555 1555 1556 1556 1558 1560 1560 1560 1560 1560 1560 1560 1559 1557 1556 1554 1551 1548 1544 1540 1536 1532 1528 1526 1523 1519 1513 1510 1508 1508 1506 1505 1503 1501 1498 1497 1494 1493 1491 1490 1488
1550 1552 1555 1556 1558 1560 1562 1561 1561 1561 1562 1562 1561 1560 1558 1555 1553 1550 1546 1543 1539 1536 1533 1529 1525 1522 1520 1516 1512 1508 1502 1499 1499 1499 1497 1495 1493 1491 1488 1486 1484 1483 1482
1553 1555 1556 1558 1560 1562 1562 1563 1563 1562 1562 1561 1559 1557 1555 1552 1549 1545 1542 1538 1535 1532 1529 1525 1522 1519 1516 1514 1512 1510 1504 1498 1492 1492 1491 1489 1487 1485 1483 1479 1476 1475 1474
1555 1556 1557 1558 1559 1561 1562 1562 1562 1561 1559 1556 1554 1552 1549 1547 1545 1541 1537 1534 1531 1527 1524 1520 1518 1516 1514 1511 1510 1509 1507 1502 1495 1484 1485 1484 1483 1479 1477 1474 1471 1468 1467
1556 1556 1556 1557 1558 1558 1558 1558 1556 1554 1553 1552 1551 1549 1548 1544 1541 1537 1533 1529 1526 1522 1518 1516 1513 1511 1509 1508 1505 1502 1499 1497 1494 1489 1479 1478 1477 1476 1473 1471 1468 1465 1462
1556 1555 1556 1557 1557 1556 1555 1553 1552 1550 1550 1549 1548 1547 1544 1541 1537 1533 1529 1525 1521 1519 1516 1513 1511 1509 1506 1503 1501 1499 1496 1494 1490 1487 1480 1474 1473 1469 1468 1468 1466 1463 1460